Starlink 33784

operational
NORAD ID: 63453 Int'l Des: 2025-069 Owner: SPXS Country: US Constellation: starlink
LEOCIRCULAR

Über Starlink 33784

Beschreibung wird geladen...

Live-Position

3D-Globus wird geladen...

Nächste Überflüge

Höhenverlauf

Altitude vs Time

uPlot chart will show altitude changes over time

Zweizeiliger Elementsatz

1 63453U 25069W 26033.04494669 .00009415 00000-0 32959-3 0 9999
2 63453 53.1591 308.3041 0001216 70.7575 289.3557 15.30199864 47946
Epoch: 2. Feb. 2026 • Age: 31 hours

Aktueller Status

Höhe 478.5 km
Geschwindigkeit 7.63 km/s
Subsatellitenpunkt -10.85°S, 118.47°W
Startdatum 4. Apr. 2025
Alter 0.8 years
Typ internet

Technische Details

Klassifizierung Payload
Masse 575.00 kg
Trockenmasse 530.00 kg
Gesamtmasse 575.00 kg
Länge 0.30 m
Durchmesser 4.10 m
Spannweite 29.00 m
Form Box + pan
Hersteller SPXS
Bus-Typ Starlink V2MO
Phasenstatus In Orbit
Besitzer/Staat SPXS/US

Große Konstellationen

Loading constellations...